Weather History for Garden City, KS

Change the Weather History Date:

Thursday, February 20, 2014

  Actual Average Record
Temperature  
Mean Temperature 35 °F 36 °F  
Max Temperature 46 °F 50 °F 87 °F (1981)
Min Temperature 24 °F 23 °F 1 °F (1978)
Degree Days  
Heating Degree Days 30 29  
Month to date heating degree days 752 626  
Since 1 July heating degree days 3917 3806  
Cooling Degree Days 0 0  
Month to date cooling degree days 0 0  
Year to date cooling degree days 0 0  
Moisture  
Dew Point 23 °F    
Average Humidity 60    
Maximum Humidity 100    
Minimum Humidity 20    
Precipitation  
Precipitation 0.03 in 0.03 in 1.13 in (1990)
Month to date precipitation 0.13 0.37  
Year to date precipitation 0.16 0.71  
Sea Level Pressure  
Sea Level Pressure 29.79 in    
Wind  
Wind Speed 23 mph (NNW)    
Max Wind Speed 53 mph    
Max Gust Speed 64 mph    
Visibility 7 miles    
Events Fog , Snow    
T = Trace of Precipitation, MM = Missing Value Source: NWS Daily Summary

Daily Weather History Graph

Daily Weather History Graph

Search for Another Location

Airport:

Trip Planner

Search our weather history database for the weather conditions in past years. The results will help you decide how hot, cold, wet, or windy it might be!

Date:

Astronomy

Feb. 20, 2014 Rise Set
Actual Time 7:26 AM CST 6:27 PM CST
Civil Twilight 6:59 AM CST 6:53 PM CST
Nautical Twilight 6:29 AM CST 7:24 PM CST
Astronomical Twilight 5:58 AM CST 7:55 PM CST
Moon No Moon Rise 10:16 AM CST (2/20)
Length of Visible Light 11h 54m
Length of Day
11h 00m
Waning Gibbous, 70% of the Moon is Illuminated
Feb 20
Waning Gibbous
Feb 22
Last Quarter
Mar 1
New
Mar 8
First Quarter
Mar 16
Full

Hourly Weather History & Observations

Time (CST) Temp. Windchill Dew Point Humidity Pressure Visibility Wind Dir Wind Speed Gust Speed Precip Events Conditions
12:54 AM 39.9 °F 34.5 °F 33.1 °F 77% 29.35 in 10.0 mi South 8.1 mph - N/A   Partly Cloudy
1:54 AM 44.1 °F 35.2 °F 33.1 °F 65% 29.37 in 10.0 mi NNW 23.0 mph 26.5 mph N/A   Overcast
2:11 AM 39.0 °F 28.8 °F 32.0 °F 76% 29.40 in 10.0 mi NNW 21.9 mph 32.2 mph 0.00 in   Overcast
2:54 AM 41.0 °F 31.9 °F 30.9 °F 67% 29.40 in 10.0 mi NNW 19.6 mph - 0.00 in   Mostly Cloudy
3:54 AM 37.9 °F 25.1 °F 28.9 °F 70% 29.48 in 7.0 mi NNW 33.4 mph 55.2 mph N/A   Mostly Cloudy
4:54 AM 34.0 °F 17.7 °F 28.0 °F 79% 29.57 in 2.5 mi NNW 46.0 mph 64.4 mph 0.00 in Snow Light Snow
5:08 AM 32.0 °F 14.9 °F 28.9 °F 88% 29.61 in 1.2 mi North 46.0 mph 64.4 mph 0.00 in Snow Light Snow
5:17 AM 32.0 °F 14.4 °F 28.9 °F 88% 29.63 in 0.8 mi North 49.5 mph 64.4 mph 0.00 in Snow Light Snow
5:28 AM 32.0 °F 16.2 °F 28.9 °F 88% 29.66 in 0.8 mi North 38.0 mph 57.5 mph 0.00 in   Overcast
5:42 AM 30.9 °F 13.7 °F 28.9 °F 92% 29.68 in 0.2 mi North 43.7 mph 56.4 mph 0.01 in Fog , Snow Heavy Snow
5:54 AM 30.9 °F 13.7 °F 30.0 °F 96% 29.69 in 0.2 mi North 43.7 mph 54.1 mph 0.02 in Fog Light Freezing Fog
6:23 AM 30.9 °F 14.9 °F 28.9 °F 92% 29.71 in 0.5 mi North 36.8 mph 52.9 mph 0.01 in Fog , Snow Snow
6:33 AM 30.9 °F 15.5 °F 28.9 °F 92% 29.72 in 0.8 mi North 33.4 mph 41.4 mph 0.01 in Snow Light Snow
6:42 AM 30.9 °F 15.5 °F 28.9 °F 92% 29.74 in 1.2 mi North 33.4 mph 46.0 mph 0.01 in Snow Light Snow
6:54 AM 30.9 °F 15.5 °F 28.9 °F 92% 29.76 in 1.0 mi North 33.4 mph 43.7 mph 0.01 in Snow Light Snow
7:07 AM 30.9 °F 15.3 °F 28.9 °F 92% 29.74 in 1.5 mi North 34.5 mph 41.4 mph 0.00 in Snow Light Snow
7:12 AM 30.9 °F 15.3 °F 28.9 °F 92% 29.74 in 3.0 mi North 34.5 mph 43.7 mph 0.00 in Snow Light Snow
7:54 AM 30.0 °F 17.2 °F 27.0 °F 88% 29.81 in 10.0 mi North 20.7 mph 29.9 mph 0.00 in   Scattered Clouds
8:54 AM 30.9 °F 20.7 °F 27.0 °F 85% 29.88 in 10.0 mi NW 13.8 mph - N/A   Clear
9:54 AM 33.1 °F 21.9 °F 26.1 °F 75% 29.90 in 10.0 mi NW 18.4 mph - N/A   Clear
10:54 AM 37.0 °F 25.6 °F 23.0 °F 57% 29.93 in 10.0 mi NNW 24.2 mph 32.2 mph N/A   Clear
11:54 AM 39.9 °F 30.0 °F 21.0 °F 47% 29.94 in 10.0 mi NW 21.9 mph 31.1 mph N/A   Clear
12:54 PM 44.1 °F 34.6 °F 21.0 °F 40% 29.94 in 10.0 mi NW 26.5 mph 40.3 mph N/A   Clear
1:54 PM 45.0 °F 35.2 °F 15.1 °F 30% 29.93 in 10.0 mi NNW 29.9 mph 39.1 mph N/A   Clear
2:54 PM 46.0 °F 35.5 °F 12.0 °F 25% 29.94 in 10.0 mi NNW 39.1 mph 47.2 mph N/A   Mostly Cloudy
3:54 PM 44.1 °F 34.4 °F 7.0 °F 22% 29.98 in 10.0 mi NW 27.6 mph 35.7 mph N/A   Scattered Clouds
4:54 PM 42.1 °F 31.3 °F 10.0 °F 27% 30.01 in 10.0 mi NNW 29.9 mph 36.8 mph N/A   Clear
5:54 PM 41.0 °F 31.1 °F 7.0 °F 25% 30.02 in 10.0 mi NW 23.0 mph 32.2 mph N/A   Clear
6:54 PM 37.0 °F 28.5 °F 9.0 °F 31% 30.04 in 10.0 mi NW 13.8 mph - N/A   Clear
7:54 PM 33.1 °F 24.9 °F 10.9 °F 40% 30.05 in 10.0 mi NW 10.4 mph - N/A   Clear
8:54 PM 28.9 °F 20.4 °F 10.9 °F 47% 30.07 in 10.0 mi WNW 9.2 mph - N/A   Clear
9:54 PM 27.0 °F 18.0 °F 12.0 °F 53% 30.07 in 10.0 mi West 9.2 mph - N/A   Clear
10:54 PM 26.1 °F 16.8 °F 10.9 °F 53% 30.06 in 10.0 mi West 9.2 mph - N/A   Clear
11:54 PM 25.0 °F 15.5 °F 10.9 °F 55% 30.04 in 10.0 mi West 9.2 mph - N/A   Clear